Hourly Data Report for October 17, 2013

All times are specified in Local Standard Time (LST). Add 1 hour to adjust for Daylight Saving Time where and when it is observed.

OTTAWA INTL A
ONTARIO

45°19'00.000" N
75°40'00.000" W
114.90 m
6106001
71628
YOW

Download Data

Hourly Data (October 2013)
Hourly Data Report for October 17, 2013
Temp Definition
°C
Dew Point Temp Definition
°C
Rel Hum Definition
%
Wind Dir Definition
10's deg

Wind Spd Definition
km/h
Visibility Definition
km
Stn Press Definition
kPa
Hmdx Definition


Wind Chill Definition


Weather Definition


TIME
00:00 Legend Double Dagger 14.1 13.5 96 23 12 24.1 99.32     LegendNANA
01:00 Legend Double Dagger 11.8 9.7 87 25 14 24.1 99.37     Mainly Clear
02:00 Legend Double Dagger 10.5 8.9 90 25 9 24.1 99.38     LegendNANA
03:00 Legend Double Dagger 9.8 8.3 90 22 10 24.1 99.39     LegendNANA
04:00 Legend Double Dagger 9.8 8.6 92 22 13 24.1 99.44     Mainly Clear
05:00 Legend Double Dagger 10.1 8.9 92 23 16 24.1 99.47     LegendNANA
06:00 Legend Double Dagger 10.0 8.8 92 22 15 24.1 99.48     LegendNANA
07:00 Legend Double Dagger 9.9 8.7 92 22 18 24.1 99.53     Mainly Clear
08:00 Legend Double Dagger 10.9 9.2 89 22 18 24.1 99.59     LegendNANA
09:00 Legend Double Dagger 12.1 9.9 86 24 22 24.1 99.59     LegendNANA
10:00 Legend Double Dagger 14.2 9.9 75 24 17 24.1 99.58     Mainly Clear
11:00 Legend Double Dagger 14.7 8.5 66 25 21 24.1 99.59     LegendNANA
12:00 Legend Double Dagger 15.7 8.5 62 27 14 24.1 99.55     LegendNANA
13:00 Legend Double Dagger 17.4 8.9 57 21 19 24.1 99.49     Mostly Cloudy
14:00 Legend Double Dagger 16.0 6.8 54 23 15 24.1 99.48     LegendNANA
15:00 Legend Double Dagger 15.5 7.4 58 24 13 24.1 99.44     LegendNANA
16:00 Legend Double Dagger 15.1 7.9 62 22 4 24.1 99.40     Mostly Cloudy
17:00 Legend Double Dagger 13.9 8.8 71 16 8 24.1 99.38     LegendNANA
18:00 Legend Double Dagger 13.1 8.6 74 17 7 24.1 99.35     LegendNANA
19:00 Legend Double Dagger 13.0 9.1 77 18 4 24.1 99.31     Cloudy
20:00 Legend Double Dagger 12.0 9.2 83 13 7 24.1 99.30     LegendNANA
21:00 Legend Double Dagger 11.9 9.3 84 19 3 24.1 99.30     LegendNANA
22:00 Legend Double Dagger 11.6 9.5 87 17 5 16.1 99.21     Rain
23:00 Legend Double Dagger 11.0 10.4 96 18 5 9.7 99.16     Moderate Rain,Fog

Notes on Data Quality.

Legend

  • E = Estimated
  • M = Missing
  • NA = Not Available
  • ‡ = Partner data that is not subject to review by the National Climate Archives
Date modified: